TimeCET,TemperatureF,Dew PointF,Humidity,Sea Level PressureIn,VisibilityMPH,Wind Direction,Wind SpeedMPH,Gust SpeedMPH,PrecipitationIn,Events,Conditions,WindDirDegrees,DateUTC
12:15 AM,57.2,51.8,82,29.74,6.2,South,11.5,-,N/A,,Mostly Cloudy,170,2013-03-29 23:15:00
12:45 AM,57.2,53.6,88,29.71,6.2,SSE,15.0,-,N/A,,Mostly Cloudy,160,2013-03-29 23:45:00
1:15 AM,57.2,50.0,77,29.71,6.2,SSE,12.7,-,N/A,,Mostly Cloudy,160,2013-03-30 00:15:00
1:45 AM,59.0,50.0,72,29.71,6.2,SSE,11.5,-,N/A,,Scattered Clouds,160,2013-03-30 00:45:00
2:15 AM,57.2,48.2,72,29.71,6.2,South,11.5,-,N/A,,Scattered Clouds,170,2013-03-30 01:15:00
2:45 AM,57.2,50.0,77,29.71,6.2,SSE,12.7,-,N/A,,Scattered Clouds,160,2013-03-30 01:45:00
3:15 AM,57.2,46.4,67,29.71,6.2,SSE,12.7,-,N/A,,Mostly Cloudy,160,2013-03-30 02:15:00
3:45 AM,59.0,48.2,67,29.71,6.2,South,10.4,-,N/A,,Mostly Cloudy,170,2013-03-30 02:45:00
4:15 AM,59.0,48.2,67,29.71,6.2,SSE,10.4,-,N/A,,Mostly Cloudy,150,2013-03-30 03:15:00
4:45 AM,57.2,48.2,72,29.71,6.2,SSE,11.5,-,N/A,,Mostly Cloudy,150,2013-03-30 03:45:00
5:15 AM,57.2,48.2,72,29.68,6.2,SSE,11.5,-,N/A,,Mostly Cloudy,150,2013-03-30 04:15:00
5:45 AM,57.2,48.2,72,29.68,6.2,SSE,10.4,-,N/A,,Mostly Cloudy,160,2013-03-30 04:45:00
6:15 AM,57.2,50.0,77,29.65,6.2,SSE,13.8,-,N/A,,Scattered Clouds,150,2013-03-30 05:15:00
6:45 AM,57.2,50.0,77,29.65,6.2,SSE,6.9,-,N/A,,Scattered Clouds,160,2013-03-30 05:45:00
7:15 AM,57.2,50.0,77,29.65,6.2,South,4.6,-,N/A,,Mostly Cloudy,170,2013-03-30 06:15:00
7:45 AM,57.2,50.0,77,29.65,6.2,SSE,16.1,-,N/A,,Mostly Cloudy,160,2013-03-30 06:45:00
8:15 AM,57.2,50.0,77,29.65,6.2,SSE,17.3,-,N/A,,Mostly Cloudy,150,2013-03-30 07:15:00
8:45 AM,57.2,51.8,82,29.62,6.2,SE,19.6,-,N/A,,Mostly Cloudy,140,2013-03-30 07:45:00
9:15 AM,59.0,53.6,82,29.62,6.2,SSE,17.3,-,N/A,,Mostly Cloudy,150,2013-03-30 08:15:00
9:45 AM,59.0,53.6,82,29.62,6.2,SSE,17.3,-,N/A,,Scattered Clouds,150,2013-03-30 08:45:00
10:15 AM,59.0,53.6,82,29.62,6.2,SSE,18.4,-,N/A,,Scattered Clouds,160,2013-03-30 09:15:00
10:45 AM,59.0,55.4,88,29.59,6.2,SSE,23.0,-,N/A,,Scattered Clouds,150,2013-03-30 09:45:00
11:15 AM,60.8,55.4,82,29.59,6.2,SSE,21.9,38.0,N/A,,Scattered Clouds,160,2013-03-30 10:15:00
11:45 AM,60.8,55.4,82,29.59,6.2,SSE,23.0,36.8,N/A,,Scattered Clouds,160,2013-03-30 10:45:00
12:15 PM,59.0,55.4,88,29.56,6.2,SSE,24.2,38.0,N/A,,Scattered Clouds,160,2013-03-30 11:15:00
12:45 PM,60.8,55.4,82,29.53,6.2,SSE,25.3,40.3,N/A,,Scattered Clouds,160,2013-03-30 11:45:00
1:15 PM,62.6,55.4,77,29.53,6.2,SSE,26.5,-,N/A,,Scattered Clouds,160,2013-03-30 12:15:00
1:45 PM,62.6,55.4,77,29.53,6.2,SSE,21.9,35.7,N/A,,Scattered Clouds,160,2013-03-30 12:45:00
2:15 PM,62.6,55.4,77,29.53,6.2,South,26.5,-,N/A,,Scattered Clouds,170,2013-03-30 13:15:00
2:45 PM,59.0,55.4,88,29.50,4.3,South,23.0,35.7,N/A,Rain,Light Rain,170,2013-03-30 13:45:00
3:15 PM,59.0,57.2,94,29.47,5.6,SSE,21.9,34.5,N/A,Rain,Light Rain,160,2013-03-30 14:15:00
3:45 PM,59.0,57.2,94,29.47,5.6,South,23.0,34.5,N/A,Rain,Light Rain,170,2013-03-30 14:45:00
4:15 PM,57.2,57.2,100,29.44,5.6,SSE,24.2,35.7,N/A,Rain,Light Rain,160,2013-03-30 15:15:00
4:45 PM,57.2,57.2,100,29.44,5.0,SSE,17.3,-,N/A,Rain,Light Rain,160,2013-03-30 15:45:00
5:15 PM,57.2,55.4,94,29.44,5.6,SSE,20.7,32.2,N/A,,Scattered Clouds,160,2013-03-30 16:15:00
5:45 PM,57.2,55.4,94,29.44,5.0,SSE,23.0,-,N/A,Rain,Light Rain Showers,160,2013-03-30 16:45:00
6:15 PM,57.2,55.4,94,29.44,3.7,South,18.4,31.1,N/A,Rain,Light Rain,180,2013-03-30 17:15:00
6:45 PM,55.4,53.6,94,29.47,3.7,South,13.8,-,N/A,Rain,Light Rain,170,2013-03-30 17:45:00
7:15 PM,55.4,55.4,100,29.47,3.7,South,13.8,-,N/A,Rain,Light Rain,180,2013-03-30 18:15:00
7:45 PM,55.4,55.4,100,29.47,3.7,South,13.8,-,N/A,Rain,Rain,180,2013-03-30 18:45:00
8:15 PM,55.4,55.4,100,29.47,5.0,SSW,11.5,-,N/A,Rain,Light Rain,200,2013-03-30 19:15:00
8:45 PM,53.6,53.6,100,29.47,6.2,SW,6.9,-,N/A,,Scattered Clouds,230,2013-03-30 19:45:00
9:15 PM,53.6,51.8,94,29.50,6.2,SW,6.9,-,N/A,,Scattered Clouds,220,2013-03-30 20:15:00
9:45 PM,51.8,50.0,94,29.50,6.2,SSW,5.8,-,N/A,,Scattered Clouds,210,2013-03-30 20:45:00
10:15 PM,53.6,51.8,94,29.50,6.2,SW,9.2,-,N/A,,Scattered Clouds,220,2013-03-30 21:15:00
10:45 PM,53.6,51.8,94,29.50,6.2,SSW,6.9,-,N/A,,Scattered Clouds,200,2013-03-30 21:45:00
11:15 PM,53.6,53.6,100,29.47,6.2,SW,10.4,-,N/A,,Scattered Clouds,220,2013-03-30 22:15:00
11:45 PM,53.6,51.8,94,29.47,6.2,SW,8.1,-,N/A,,Scattered Clouds,220,2013-03-30 22:45:00